{"data":{"norad_id":58691,"epoch":"2026-09-21T22:13:53.325696Z","epoch_age_seconds":124417,"freshness":"FRESH","line1":"1 58691U 23212A   26264.92631164 -.00000097  00000+0  55543-4 0  9993","line2":"2 58691  50.0026 349.3222 0000596  88.3276 271.7670 13.41462236134238","mean_motion":13.41462236,"eccentricity":5.96e-5,"inclination_deg":50.0026,"raan_deg":349.3222,"arg_perigee_deg":88.3276,"mean_anomaly_deg":271.767,"bstar":5.5543e-5,"rev_number":13423,"period_min":107.34554886121,"perigee_km":1103.3912898469,"apogee_km":1104.2831411734,"semimajor_km":7481.9742155102,"source":"CELESTRAK","updated_at":"2026-09-22T09:00:26.789689Z"}}